OBJECT U

Satellite information

Favourite Embed

Satellite Type and Status

UNKNOWNIN ORBIT

Key statistics

Satellite OBJECT U at a glance.

Uptime

2975

Days in orbit

Revolutions

≈ 15.0

Per day

Orbit

SSO

Sun Synchronous Orbit

Inclination

97.4

Latest

Satellite identification and parameters

Extended collection of information and parameters for OBJECT U.

Object identification

Identified? True

Debris? False

Object name: OBJECT U

International designator: 2017-042U

Object number (NORAD): 42843

Object ID (CCSDS): 42843

Country: TO BE DETERMINED/UNKNOWN (TBD)

Current information (Y/N): Y

RCS size: MEDIUM

Orbital parameters

Period: 96.038 minutes

Inclination: 97.4065 deg

SMA: 6946.885 km

Apoapsis: 576.329 km

Periapsis: 561.17 km

RAAN: 51.8243 deg

Eccentricy: 0.00109111

Argument of periapsis: 21.2767 deg

Mean anomaly: 338.8909 deg

Mean motion: 14.99400427 rev/day

Mean motion (dot): 0.00004449 rev/day2

B* drag term: 0.0003675048 1/REarth

Two-line elements (TLE)

Creation date: Sept. 4, 2025, 10:13 a.m.

Reference frame: TEME

Reference center: EARTH

Epoch: Sept. 4, 2025, 5:03 a.m. UTC

TLE line 0: 0 OBJECT U

TLE line 1: 1 42843U 17042U 25247.21046090 .00004449 00000-0 36750-3 0 9992

TLE line 2: 2 42843 97.4065 51.8243 0010911 21.2767 338.8909 14.99400427443746

Live tracking on map

Real-time ground track for satellite OBJECT U.

In-orbit conjunctions

There are no conjunctions computed for OBJECT U, at the moment. Check back to stay up to date, as we update our databases every day.

Go to all conjunctions

Associated space launch

Kanopus-V-IK is a small Russian remote sensing satellite for monitoring wildfires. Weighing about 473 kg, it is intended for 5 years of operation in a 510 km sun-synchronous orbit.

OBJECT U was lifted into orbit during the mission ‘Soyuz-2.1a/Fregat | Kanopus-V-IK’, on board a Soyuz 2.1a/Fregat-M space rocket.

The launch took place on July 14, 2017, 6:36 a.m. from 31/6.

For more information about the launch, click the button.

Launch to space Soyuz-2.1a/Fregat | Kanopus-V-IK
Soyuz-2.1a/Fregat | Kanopus-V-IK

Agency: N/A

Status: Launch was a Partial Failure

Launch date: July 14, 2017, 6:36 a.m. UTC

Rocket: Soyuz 2.1a/Fregat-M

Launch pad: 31/6

Location: Baikonur Cosmodrome, Republic of Kazakhstan

...

Latest news about this satellite

There are no fresh news available about this satellite. Check back as we update our databases every day.


Newsletter sign-up

Weekly statistics, charts and insights to help you stay on top of the space industry.